Lexington Weather

Lexington, Massachusetts, USA

43°F
9/20/2020 10:48pm 
  • Lexington Conditions: Clear
  • Temperature: 43.2°F / 6.2°CColder 1.6°F than last hour.
  • Dew Point: 37.0°FDecreased 0.9°Fsince last hour.
  • Relative Humidity: 79%Increased 2.0% since last hour.
  • Wind: Calm, 10-min avg: Calm, gust: None
  • Barometer: 30.53 in Steady
  • Visibility: 10 miles
  • Rain Today: 0.00 in
  •   
Southeast Middlesex County - Special Weather Statement - Special Weather Statement
 - SEE ALL NEARBY ALERTS -

Regional Weather Roundup
for Boston / Norton, MA

        
000
ASUS41 KBOX 161604
RWRBOX

REGIONAL WEATHER ROUNDUP
NATIONAL WEATHER SERVICE BOSTON/NORTON MA
1200 PM EDT WED SEP 16 2020

NOTE:  "FAIR" INDICATES FEW OR NO CLOUDS BELOW 12,000 FEET WITH NO 
SIGNIFICANT WEATHER AND/OR OBSTRUCTIONS TO VISIBILITY.

MAZALL-161700-
EASTERN MASSACHUSETTS
  
CITY           SKY/WX    TMP DP  RH WIND       PRES   REMARKS
BOSTON         PTSUNNY   70  51  51 SW18      30.20F                  
BEVERLY        SUNNY     70  51  51 SW21G29   30.18F                  
LAWRENCE       SUNNY     68  53  58 SW16G25   30.20F                  
BEDFORD        SUNNY     70  52  52 S15G23    30.19F                  
BLUE HILL        N/A     67  52  58 SW20G26   30.20F                  
NORWOOD        MOSUNNY   71  53  52 S16G24    30.21F                  
MARSHFIELD     MOSUNNY   72  54  53 SW13G22   30.21F                  
PLYMOUTH       MOSUNNY   69  53  56 SW10G21   30.23F                  
TAUNTON        MOSUNNY   71  53  52 SW12G24   30.24F                  
NEW BEDFORD    PTSUNNY   70  54  56 SW15G24   30.24F                  
$$

MAZALL-161700-
CAPE COD AND THE ISLANDS
  
CITY           SKY/WX    TMP DP  RH WIND       PRES   REMARKS
FALMOUTH       MOSUNNY   68  54  60 SW17G25   30.25F                  
HYANNIS        SUNNY     69  53  56 SW17G23   30.24F                  
CHATHAM        MOSUNNY   69  55  60 SW8G21    30.27F                  
PROVINCETOWN   SUNNY     68  56  65 SW18      30.24F                  
NANTUCKET      SUNNY     67  55  65 S13       30.27F                  
MARTHAS VNYRD  PTSUNNY   70  54  56 S17G25    30.26F                  
$$
 
MAZALL-161700-
CENTRAL AND WESTERN MASSACHUSETTS
  
CITY           SKY/WX    TMP DP  RH WIND       PRES   REMARKS
WORCESTER      SUNNY     65  50  58 SW14      30.21F                  
FITCHBURG      SUNNY     70  48  45 S10G18    30.20F                  
ORANGE         SUNNY     67  46  47 S15       30.20F                  
SPRINGFIELD    MOSUNNY   69  50  50 S13G18    30.19F                  
WESTFIELD      SUNNY     69  48  47 SW13      30.19F                  
NORTH ADAMS    SUNNY     66  48  52 VRB3      30.17F                  
PITTSFIELD     SUNNY     64  47  53 S10       30.18F                  
$$
 
RIZALL-161700-
RHODE ISLAND
  
CITY           SKY/WX    TMP DP  RH WIND       PRES   REMARKS
PROVIDENCE     PTSUNNY   69  53  56 SW12      30.24F                  
NEWPORT        PTSUNNY   68  53  58 SW12G20   30.25F                  
BLOCK ISLAND   CLOUDY    68  53  58 SW13      30.26F                  
SMITHFIELD     PTSUNNY   68  54  60 VRB7G17   30.23F                  
WESTERLY       CLOUDY    68  52  56 SW12G20   30.25F                  
$$
 
CTZALL-161700-
CONNECTICUT
  
CITY           SKY/WX    TMP DP  RH WIND       PRES   REMARKS
BRADLEY INTL   PTSUNNY   69  49  48 SW15      30.21F                  
HARTFORD       MOSUNNY   70  51  51 S12G20    30.22F                  
BRIDGEPORT     MOSUNNY   69  55  60 SW8       30.24F                  
DANBURY        MOSUNNY   66  52  60 W13       30.24F                  
GROTON         PTSUNNY   69  55  60 SW14      30.24F                  
NEW HAVEN      MOSUNNY   69  57  65 SW8       30.24F                  
CHESTER        NOT AVBL                                               
MERIDEN        MOSUNNY   68  52  56 S9G26     30.23F                  
WILLIMANTIC    MOSUNNY   68  52  56 SW10      30.23F                  
OXFORD         MOSUNNY   65  53  65 S10       30.24F                  
$$

MEZ002-015-021-024-NHZ003-005-008-011-012-014-VTZ005-008-161700-
NORTHERN NEW ENGLAND
  
CITY           SKY/WX    TMP DP  RH WIND       PRES   REMARKS
PORTLAND ME    SUNNY     68  47  46 SW10G21   30.13F                  
BANGOR ME      MOSUNNY   69  46  43 S21       30.07F                  
CONCORD NH     SUNNY     71  41  33 SW13G18   30.15F                  
MANCHESTER NH  MOSUNNY   70  48  45 SW15G21   30.15F                  
NASHUA NH      SUNNY     69  51  52 VRB7      30.18F                  
PORTSMOUTH NH  SUNNY     68  47  46 SW12G21   30.14F                  
JAFFREY NH     SUNNY     64  44  48 SW13G21   30.19F                  
KEENE NH       SUNNY     66  46  48 S12       30.18F                  
BURLINGTON VT  MOSUNNY   67  41  38 S17G30    30.04F                  
MT. WASHINGTON CLOUDY    50  25  37 W44G52      N/A                   
$$

NYZ052-076-161700-
EASTERN NEW YORK
  
CITY           SKY/WX    TMP DP  RH WIND       PRES   REMARKS
ALBANY         PTSUNNY   61  48  62 SE12G20   30.16F                  
NEW YORK CITY  PTSUNNY   70  51  51 SW8       30.23F                  
$$
 
ANZALL-161700-
MARINE OBSERVATIONS
  
STATION/POSITION TIME  TEMP    WIND        PRES    VSBY  WAVE
                       AIR SEA DIR/SP/G                  HT/PER
                 (UTC) (F)     (DEG/KT/KT) (MB)    (MI)  (FT/S)
BOSTON BUOY      1550   65 64  200/ 16/ 19 1021.6F         3/ 3
BUZZARDS BAY     1500          200/ 17/ 19 1025.8S
NANTUCKET SOUND  1540      70  210/ 16/ 19   N/A
MASS BAY-STELLWA 1504   63     250/ 17/ 23 1021.0F  1 7/8  3/ 4
ISLE OF SHOALS   1500   62     220/ 25/ 27 1021.8F
S OF BLOCK IS    1526      70                N/A           3/10
$$

......................KEY.........................
  SKY/WX - SKY CONDITION/PRESENT WEATHER
  TMP    - TEMPERATURE IN FAHRENHEIT
  DWPT   - DEWPOINT IN FAHRENHEIT
  RH     - RELATIVE HUMIDITY IN PERCENT
  WIND   - DIRECTION AND SPEED IN MPH
  PRES   - MEAN SEA LEVEL PRESSURE IN INCHES OF HG
  WCI    - WIND CHILL INDEX
  VSB    - VISIBILITY IN MILES
  HX     - HEAT INDEX
  TC     - TEMPERATURE IN CELSIUS
  VRB    - VARIABLE WIND DIRECTION
  N/A    - NOT AVAILABLE
  
      

Other recent Regional Weather Roundups

Sun Sep 20, 10:04pm

Sun Sep 20, 9:04pm

Sun Sep 20, 8:05pm

Sun Sep 20, 7:04pm

Sun Sep 20, 6:04pm

Sun Sep 20, 5:04pm

Sun Sep 20, 4:04pm

Sun Sep 20, 3:05pm

Sun Sep 20, 2:05pm

Sun Sep 20, 1:04pm

Sun Sep 20, 12:04pm

Sun Sep 20, 11:04am

Sun Sep 20, 10:04am

Sun Sep 20, 9:04am

Sun Sep 20, 8:04am

Sun Sep 20, 7:04am

Sun Sep 20, 6:04am

Sun Sep 20, 5:04am

Sun Sep 20, 4:04am

Sun Sep 20, 3:05am

Sun Sep 20, 2:04am

Sun Sep 20, 1:04am

Sun Sep 20, 12:04am

Sat Sep 19, 11:04pm

Sat Sep 19, 10:04pm

Sat Sep 19, 9:04pm

Sat Sep 19, 8:05pm

Sat Sep 19, 7:04pm

Sat Sep 19, 6:05pm

Sat Sep 19, 5:04pm

Sat Sep 19, 4:04pm

Sat Sep 19, 3:04pm

Sat Sep 19, 2:04pm

Sat Sep 19, 1:05pm

Sat Sep 19, 12:04pm

Sat Sep 19, 11:04am

Sat Sep 19, 10:04am

Sat Sep 19, 9:05am

Sat Sep 19, 8:04am

Sat Sep 19, 7:04am

Sat Sep 19, 6:04am

Sat Sep 19, 5:04am

Sat Sep 19, 4:04am

Sat Sep 19, 3:04am

Sat Sep 19, 2:04am

Sat Sep 19, 1:04am

Sat Sep 19, 12:04am

Fri Sep 18, 11:05pm

Fri Sep 18, 10:04pm

Fri Sep 18, 9:04pm

Fri Sep 18, 8:04pm

Fri Sep 18, 7:04pm

Fri Sep 18, 6:04pm

Fri Sep 18, 5:05pm

Fri Sep 18, 4:04pm

Fri Sep 18, 3:05pm

Fri Sep 18, 2:04pm

Fri Sep 18, 1:04pm

Fri Sep 18, 12:04pm

Fri Sep 18, 11:05am

Fri Sep 18, 10:05am

Fri Sep 18, 9:04am

Fri Sep 18, 8:04am

Fri Sep 18, 7:04am

Fri Sep 18, 6:04am

Fri Sep 18, 5:04am

Fri Sep 18, 4:04am

Fri Sep 18, 3:04am

Fri Sep 18, 2:04am

Fri Sep 18, 1:04am

Fri Sep 18, 12:04am

Thu Sep 17, 11:05pm

Thu Sep 17, 10:04pm

Thu Sep 17, 9:04pm

Thu Sep 17, 8:05pm

Thu Sep 17, 7:04pm

Thu Sep 17, 6:04pm

Thu Sep 17, 5:04pm

Thu Sep 17, 4:04pm

Thu Sep 17, 3:05pm

Thu Sep 17, 2:04pm

Thu Sep 17, 1:04pm

Thu Sep 17, 12:04pm

Thu Sep 17, 11:04am

Thu Sep 17, 10:04am

Thu Sep 17, 9:04am

Thu Sep 17, 8:04am

Thu Sep 17, 7:04am

Thu Sep 17, 6:04am

Thu Sep 17, 5:04am

Thu Sep 17, 4:04am

Thu Sep 17, 3:04am

Thu Sep 17, 2:05am

Thu Sep 17, 1:05am

Thu Sep 17, 12:04am

Wed Sep 16, 11:04pm

Wed Sep 16, 10:04pm

Wed Sep 16, 9:04pm

Wed Sep 16, 8:05pm

Wed Sep 16, 7:04pm

Wed Sep 16, 6:04pm

Wed Sep 16, 5:04pm

Wed Sep 16, 4:04pm

Wed Sep 16, 3:04pm

Wed Sep 16, 2:04pm

Wed Sep 16, 1:04pm

Wed Sep 16, 11:04am

Wed Sep 16, 10:04am

Wed Sep 16, 9:04am

Wed Sep 16, 8:04am

Wed Sep 16, 7:04am

Wed Sep 16, 6:04am

Wed Sep 16, 5:04am

Wed Sep 16, 4:04am

Wed Sep 16, 3:04am

Wed Sep 16, 2:04am

Wed Sep 16, 1:04am

Wed Sep 16, 12:05am

Tue Sep 15, 11:04pm

Tue Sep 15, 10:04pm

Tue Sep 15, 9:04pm

Tue Sep 15, 8:04pm

Tue Sep 15, 7:04pm

Tue Sep 15, 6:04pm

Tue Sep 15, 5:04pm

Tue Sep 15, 4:05pm

Tue Sep 15, 3:04pm

Tue Sep 15, 2:04pm

Tue Sep 15, 1:04pm

Tue Sep 15, 12:04pm

Tue Sep 15, 11:04am

Tue Sep 15, 10:04am

Tue Sep 15, 9:04am

Tue Sep 15, 8:04am

Tue Sep 15, 7:04am

Tue Sep 15, 6:04am

Tue Sep 15, 5:04am

Tue Sep 15, 4:04am

Tue Sep 15, 3:04am

Tue Sep 15, 2:04am

Tue Sep 15, 1:04am

Tue Sep 15, 12:05am

Mon Sep 14, 11:04pm

Mon Sep 14, 10:04pm

Mon Sep 14, 9:04pm

Mon Sep 14, 8:04pm

Mon Sep 14, 7:04pm

Mon Sep 14, 6:04pm

Mon Sep 14, 5:04pm

Mon Sep 14, 4:05pm

Mon Sep 14, 3:04pm

Mon Sep 14, 2:05pm

Mon Sep 14, 1:04pm

Mon Sep 14, 12:04pm

Mon Sep 14, 11:04am

Mon Sep 14, 10:05am

Mon Sep 14, 9:04am

Mon Sep 14, 8:04am

Mon Sep 14, 7:04am

Mon Sep 14, 6:04am

Mon Sep 14, 5:04am

Mon Sep 14, 4:04am

Mon Sep 14, 3:04am

Mon Sep 14, 2:04am

Mon Sep 14, 1:04am

Mon Sep 14, 12:04am

Sun Sep 13, 11:05pm

Meta data:

ID: c4486292-56dd-44bf-bd21-f58778ad0652
Link: https://api.weather.gov/products/c4486292-56dd-44bf-bd21-f58778ad0652